星链-31466 (STARLINK-31466 )

导读

STARLINK-31466是美国SpaceX星链星座组网卫星,于北京时间2024年4月5日发射入轨,属于星链低轨互联网星座扩容项目。该卫星运行于近地轨道,主要为全球偏远地区、远洋航行等场景提供高速低延迟卫星互联网接入服务,也服务于部分特殊商业与民用通信需求。

基本信息
目录编号:
59420
目录名称:
STARLINK-31466
国际标识:
2024-064Y
轨道中心:
EARTH
卫星名称:
星链-31466
卫星全名:
星链-31466 (STARLINK-31466 )
卫星状态:
在轨 (已飞行889 天)
发射日期:
2024-04-05 UTC
国别 :
美国 (US)
星等 :
--
该卫星已列入 空间交会检测服务 Space Conjunction Data Service (SCDS) ,当前飞行风险评估等级: 高风险
轨道信息
数据来源 国际轨道数据
星历时间: 2026-09-11T06:37:08+0800
18小时前
查看轨道信息
半长轴: 6861.209km
偏心率: 0.0001334
轨道倾角: 43.004°
近地点辐角 276.469°
升交点赤经 90.320°
平近点角 83.601°
近地点: 482.156km
远地点: 483.988km
周期: 94.267分钟
每日圈数: 15.275726
详细信息
固有亮度:
5
最大亮度:
0.3
卫星平台:
Starlink v2.0 mini
覆盖范围:
全球
运营商:
太空探索技术公司
运营商所在国:
美国
制造商(研发单位):
太空探索技术公司
制造商所在国:
美国
使用方式:
暂无
卫星简介
星链(Starlink)计划是由太空探索技术公司(SpaceX)提出的一个巨型低轨卫星互联网星座项目,计划在2019年至2024年间在太空搭建由约1.2万颗卫星组成的“星链”网络,其中1584颗将部署在地球上空550千米处的近地轨道,并从2020年开始工作。该卫星仍在工作。
2D轨道图
3D轨道图
轨道高度分析图
轨道倾角分析图
轨道综合分析图
查看轨道综合分析图
交会数据列表
事件ID 空间交会对象 最接近时刻(TCA) 交会距离 交会风险概率(CRP) 交会风险指数(CRI) 操作
CDM_260912-202305-942006-684921
2026-09-12T
20:23:46+0000
0.443 km
远距离
1.626374E-4 高风险 0.79
CDM_260913-050105-942006-684921
2026-09-13T
05:01:37+0000
1.068 km
极远距离
1.168022E-5 中风险 0.56
CDM_260909-013205-683205-942022
2026-09-09T
01:32:28+0000
0.988 km
远距离
7.823701E-6 低风险 0.53
CDM_260913-115305-714305-942021
2026-09-13T
11:53:55+0000
1.549 km
极远距离
4.679075E-6 低风险 0.48
CDM_260913-132805-714305-942021
2026-09-13T
13:28:04+0000
1.884 km
极远距离
2.631642E-6 低风险 0.43
CDM_260912-235504-562505-942022
2026-09-12T
23:55:37+0000
2.133 km
极远距离
1.6053E-6 低风险 0.39
CDM_260912-043105-942006-435621
2026-09-12T
04:31:16+0000
2.878 km
极远距离
1.283088E-6 低风险 0.37
CDM_260913-101905-714305-942021
2026-09-13T
10:19:45+0000
2.726 km
极远距离
1.22224E-6 低风险 0.37
CDM_260912-215705-942006-684921
2026-09-12T
21:57:55+0000
2.338 km
极远距离
1.188016E-6 低风险 0.36
CDM_260913-032705-942006-684921
2026-09-13T
03:27:28+0000
2.669 km
极远距离
9.520193E-7 极低风险 0.35
与全量物体交会距离演化趋势
与全量物体交会风险概率演化趋势